Theta_e
326 325 324 320 307 306 301 304 308 302 303 310 313 311 310 313 310 306 326 328 331 335 339 344 346 348 347 348 347 346 346 344 344 343 343 342 342 341 341 340 340 340 341 341 341 342 341 340 342
321 323 320 316 304 298 300 307 307 305 305 309 313 313 312 309 317 316 320 328 332 336 339 342 343 347 348 348 347 347 347 346 344 344 344 344 344 344 344 343 342 342 342 344 345 344 344 342 341
317 322 314 311 306 299 301 308 310 312 308 305 303 309 309 312 319 320 326 328 331 333 339 342 343 346 348 349 347 347 347 346 346 345 345 345 346 346 346 345 344 345 345 345 344 342 340 337 337
316 317 316 306 303 307 307 310 312 313 309 309 305 302 309 314 316 321 328 328 329 331 337 339 343 346 348 349 347 347 347 347 347 347 346 346 345 344 344 342 341 341 340 340 338 336 334 333 333
314 313 306 304 305 310 313 315 315 313 313 311 310 307 310 315 317 322 326 327 327 330 335 338 342 345 347 349 347 346 346 346 347 347 345 344 341 339 339 338 338 337 336 335 333 331 330 329 326
307 314 303 301 305 310 313 317 316 315 316 315 311 310 312 315 314 318 325 325 329 331 336 338 337 340 344 346 346 345 346 346 346 345 343 340 338 336 335 334 334 332 331 330 329 327 325 322 320
303 305 303 304 305 308 312 317 314 314 315 315 317 310 315 318 315 316 322 326 330 333 335 337 338 339 337 340 341 342 343 344 343 342 340 338 335 333 332 331 329 328 328 327 324 322 319 317 315
305 303 299 302 303 305 313 315 317 315 313 319 319 312 313 316 316 316 320 324 328 332 334 337 336 338 340 340 334 335 338 338 337 335 332 330 328 328 328 325 327 326 325 323 321 319 316 315 313
306 295 294 299 302 305 313 312 317 318 314 315 318 317 312 312 313 314 315 320 325 330 333 333 337 336 336 336 330 329 331 331 330 327 325 321 318 319 317 319 324 325 322 321 319 316 313 312 311
296 292 294 302 305 306 309 305 303 302 305 311 314 317 310 310 311 312 313 317 322 326 331 333 336 337 335 335 330 330 329 328 326 322 319 317 314 314 315 315 319 321 320 319 317 313 310 309 303
295 290 295 296 299 302 301 300 300 298 300 306 310 314 316 308 310 312 314 317 322 326 330 331 334 335 333 330 328 325 325 323 322 320 316 315 310 307 308 307 308 307 312 309 309 306 303 302 303
290 294 295 297 299 297 296 298 295 298 300 308 310 315 315 313 309 311 313 316 318 324 328 329 332 332 331 327 326 324 323 323 322 319 315 310 306 305 305 305 304 304 305 304 302 302 303 303 303
292 293 295 296 295 295 296 294 294 295 300 305 306 309 312 313 311 311 313 314 316 320 326 327 329 329 329 329 326 326 323 322 320 316 314 307 305 304 304 303 303 303 301 303 302 302 302 301 302
294 294 294 295 295 296 293 293 294 296 299 300 302 302 306 309 311 309 310 311 313 317 321 328 328 328 329 328 325 324 319 318 314 312 311 307 306 305 303 302 302 302 302 302 302 301 301 301 301
293 289 292 293 294 294 295 291 292 298 299 298 299 301 302 304 306 307 309 309 311 315 319 323 328 329 328 328 322 318 315 313 309 308 307 306 306 305 303 302 301 302 302 302 302 301 300 300 301
288 289 285 292 294 295 292 285 293 297 297 297 298 299 300 302 303 305 307 307 311 313 316 319 324 325 326 324 316 313 310 307 306 305 306 305 306 306 303 303 302 302 302 301 301 300 299 299 298
286 280 283 287 293 292 291 287 294 297 296 296 298 300 301 301 304 306 308 308 308 310 313 316 318 319 320 316 312 308 306 305 304 304 305 306 306 306 304 303 302 302 301 300 300 300 298 298 298
282 282 285 284 289 291 290 290 294 295 295 294 295 297 298 299 301 304 306 308 308 307 311 314 314 315 316 313 309 305 303 303 304 304 305 305 305 305 303 303 302 302 301 300 299 298 298 297 296
287 287 286 289 292 288 289 290 292 294 293 293 294 296 298 299 302 303 304 304 305 306 308 312 311 311 312 308 304 302 302 303 303 303 304 304 304 304 303 302 302 302 300 299 298 299 296 296 296
285 283 283 287 290 289 288 287 290 291 291 293 293 293 295 297 300 302 303 304 304 305 306 309 310 310 310 308 305 304 303 303 303 304 304 305 304 304 303 302 301 300 300 299 299 297 295 295 294
287 284 284 284 289 290 287 284 287 290 292 293 294 295 295 296 296 298 300 301 302 304 305 307 309 309 308 307 304 301 300 300 300 301 302 304 304 304 303 301 301 300 299 299 297 296 295 293 292
283 290 288 286 284 280 287 278 286 289 290 293 293 294 294 295 296 297 296 295 297 301 305 307 308 308 307 305 302 300 299 298 300 301 301 302 303 302 303 302 301 300 300 298 297 298 296 294 290
285 289 288 285 282 281 282 279 284 287 287 289 290 292 293 294 293 293 293 295 296 299 303 304 305 306 306 303 302 300 300 300 300 300 300 301 302 302 302 302 301 300 299 298 297 296 295 295 293
286 285 283 280 278 274 280 279 282 286 289 291 295 291 292 292 293 293 294 295 294 297 299 301 302 303 304 303 302 300 300 299 298 298 298 299 301 301 301 301 300 299 299 298 297 296 295 295 294
283 281 275 272 271 272 281 278 282 288 291 292 289 289 289 290 291 291 290 291 292 293 297 300 299 299 302 302 301 301 299 299 297 297 298 298 299 300 300 300 299 299 298 298 297 296 295 294 293
280 280 276 269 271 275 280 276 282 290 293 294 290 290 289 288 289 289 289 289 289 292 293 297 298 298 299 300 300 300 299 299 297 298 298 298 298 300 300 299 299 298 298 298 296 296 295 294 293
278 276 283 278 279 275 277 281 287 291 289 287 288 287 286 287 288 288 288 289 289 290 291 294 297 298 297 298 299 299 299 298 297 297 298 298 299 299 299 299 298 298 297 297 296 295 294 293 292
279 283 276 277 269 266 276 277 280 286 284 285 285 285 285 286 286 287 287 288 289 290 291 292 294 296 297 297 298 299 298 298 297 297 297 298 298 299 299 298 298 297 296 296 295 294 293 292 292
275 275 277 279 277 271 272 275 282 282 284 283 283 284 284 284 285 285 285 286 287 288 289 289 290 292 295 296 297 296 297 297 296 296 297 298 298 298 298 298 297 296 295 295 295 294 293 292 292
273 272 273 270 269 273 276 275 285 284 284 284 283 284 283 283 283 283 283 284 284 286 287 287 288 289 290 293 295 296 296 296 296 295 296 297 297 298 298 297 296 296 295 295 294 293 293 291 291
Wind_Speed
8 9 6 3 3 5 10 12 11 8 4 5 6 5 8 8 5 1 4 6 9 14 16 18 21 21 21 19 17 16 15 15 14 14 12 12 11 10 10 9 8 7 7 7 8 10 9 9 8
6 11 2 4 6 9 9 14 18 9 6 2 3 3 8 7 8 8 6 7 11 14 16 17 19 20 19 20 18 17 15 15 15 14 13 12 11 11 11 9 8 7 7 6 8 11 12 10 9
7 9 2 4 10 15 14 17 15 6 6 3 2 6 5 5 6 8 7 9 10 11 16 15 17 20 18 20 19 19 17 15 14 14 14 13 12 11 12 10 8 9 10 11 11 9 9 7 6
4 3 4 7 18 17 16 12 10 13 4 2 4 7 6 1 4 6 10 9 9 10 16 18 20 20 18 17 19 19 17 16 14 14 14 14 13 11 14 10 8 9 9 10 8 8 8 8 8
2 4 7 10 23 19 19 21 20 20 11 6 8 8 9 2 9 10 10 9 9 9 11 17 21 19 18 18 19 19 17 16 15 16 15 14 12 11 9 9 9 9 9 9 9 8 9 8 7
3 4 7 12 22 19 20 22 18 20 19 11 9 9 9 11 10 9 10 10 9 10 11 14 18 15 15 20 19 19 18 16 15 16 15 16 12 11 10 10 10 10 10 10 9 8 7 6 5
5 8 13 17 21 22 21 15 15 15 14 13 10 14 15 11 11 10 9 9 8 10 10 12 12 13 13 16 17 17 17 14 18 17 15 16 13 12 11 10 10 10 11 10 9 8 7 6 5
3 4 13 14 20 35 17 16 19 17 15 10 7 9 13 4 13 10 9 8 8 8 9 13 12 11 11 11 13 14 15 17 16 15 15 12 11 10 10 9 9 11 10 10 9 8 8 7 6
5 6 12 20 23 29 17 18 19 11 9 8 11 9 6 9 8 7 5 7 7 8 9 7 13 11 8 9 10 14 15 14 15 12 16 12 5 6 8 8 9 11 10 10 9 8 7 7 7
8 9 15 18 19 21 19 13 14 15 13 7 12 4 10 9 8 7 7 9 10 10 11 10 10 13 11 9 10 9 10 8 8 8 10 7 7 6 7 7 10 9 8 10 9 8 7 7 4
10 16 15 16 18 20 22 20 10 15 16 16 10 11 12 10 12 12 11 10 13 12 11 12 10 11 12 10 8 5 5 6 7 10 8 6 4 5 5 4 3 4 6 3 5 4 4 6 1
21 18 16 17 17 19 20 18 18 15 19 14 17 14 13 8 12 13 12 12 10 12 14 14 14 12 13 9 8 8 7 7 7 8 9 5 4 5 5 4 5 5 4 5 6 4 4 3 1
20 18 19 18 18 13 17 20 20 25 16 17 18 21 16 14 10 12 12 9 10 13 14 17 16 14 13 12 10 10 10 9 9 9 10 6 6 5 5 6 5 5 5 5 4 4 3 2 2
11 12 15 14 15 15 21 22 13 17 10 21 24 24 15 16 16 10 12 12 11 13 15 17 20 18 15 13 13 10 9 9 8 8 10 8 6 7 5 5 5 5 5 4 5 4 4 4 3
17 20 18 19 12 14 7 25 29 23 19 23 20 19 19 20 13 16 14 15 16 11 15 17 20 19 18 17 12 9 8 9 7 7 10 9 8 8 7 5 5 5 5 6 4 3 2 2 3
12 14 17 6 19 22 13 33 9 9 13 22 24 23 20 17 15 16 17 17 16 16 15 17 16 18 17 15 10 8 7 8 8 7 9 10 10 11 7 6 5 5 5 5 5 4 3 3 3
13 16 17 18 19 13 16 28 9 11 9 9 16 18 17 17 19 18 19 15 15 17 15 17 18 19 18 14 10 8 9 7 7 7 8 12 9 11 9 7 5 6 5 4 4 3 3 2 2
13 23 18 23 10 16 20 32 18 11 18 17 15 14 11 11 12 9 10 13 13 12 17 15 16 19 17 11 10 7 6 6 7 8 9 11 9 9 7 6 7 6 5 5 4 4 2 3 2
22 20 22 22 11 10 20 25 21 13 15 19 18 18 21 22 18 12 12 11 10 10 15 18 19 17 15 13 14 12 13 11 9 8 11 12 10 9 8 6 8 7 7 6 6 4 5 1 2
23 25 29 29 16 13 20 25 20 15 14 19 22 24 22 20 20 21 20 15 17 19 16 18 21 20 18 14 12 11 13 12 11 9 11 14 13 12 8 8 8 7 7 7 6 6 4 3 3
25 27 31 25 16 13 16 25 27 17 17 21 29 30 24 23 23 21 18 18 13 17 19 19 21 22 21 19 12 7 5 5 6 9 10 12 13 12 11 10 9 8 6 7 7 6 6 5 1
29 26 26 23 19 17 8 22 29 16 16 20 16 23 24 23 21 18 15 10 13 15 17 18 19 20 19 20 16 18 16 14 11 13 11 12 14 16 15 15 13 11 7 9 8 6 4 6 5
30 22 22 16 14 14 20 12 33 8 8 10 10 11 14 16 10 10 10 10 10 8 14 13 15 17 19 19 20 17 17 13 8 10 13 12 12 13 13 13 13 12 8 8 9 8 6 4 5
14 22 10 1 4 13 23 22 27 16 16 19 24 6 7 9 9 9 8 8 7 3 7 8 11 13 18 19 19 21 20 16 12 14 12 11 10 10 11 11 12 11 10 11 9 7 8 6 5
16 8 8 5 8 15 18 14 20 9 13 20 4 6 8 10 12 13 13 11 10 8 4 7 9 8 15 17 18 18 16 15 16 17 14 15 12 11 14 15 13 11 11 10 9 10 8 7 5
13 13 11 10 11 10 17 11 14 20 35 24 8 10 16 15 14 13 12 9 10 10 9 2 6 6 9 14 15 13 12 10 10 14 13 13 13 14 16 15 13 12 12 10 9 7 7 6 5
4 14 20 21 21 7 6 8 10 16 11 11 14 16 14 14 14 14 14 13 12 11 10 6 3 5 7 9 9 10 11 12 11 14 12 12 12 12 15 16 15 13 13 13 12 8 9 8 6
15 14 6 4 5 6 7 8 9 9 10 11 12 12 12 12 13 12 12 14 14 13 14 13 9 5 4 8 8 9 9 8 8 12 13 13 12 14 16 16 15 14 13 13 12 8 8 9 6
21 10 7 9 8 6 3 3 6 9 9 10 11 11 11 12 12 13 12 13 14 14 15 15 16 14 6 4 6 7 6 7 7 8 9 11 11 14 15 17 17 16 15 14 12 11 11 11 9
14 12 13 8 11 9 11 17 7 9 9 9 12 12 12 12 11 12 13 14 14 14 14 15 15 14 12 9 2 1 3 5 6 7 8 8 11 12 15 15 15 16 16 15 15 14 13 13 12
Wind_Direction
284 262 235 286 255 227 254 259 278 311 326 335 49 323 350 318 312 235 203 125 153 136 149 164 169 171 173 169 169 170 171 174 173 172 172 170 167 169 164 160 158 154 149 144 138 127 111 101 96
298 295 259 265 249 263 268 258 250 217 221 157 38 314 300 284 284 119 140 155 139 140 150 167 169 171 175 170 169 170 174 177 179 177 180 181 184 185 182 173 168 169 169 190 171 134 122 115 103
271 265 263 230 232 249 265 271 296 312 74 34 218 222 292 285 58 131 105 148 140 147 152 166 168 172 177 170 172 169 176 181 183 182 182 198 199 206 204 166 148 168 147 116 121 122 113 111 125
259 217 255 247 256 254 259 266 285 306 117 98 290 273 219 174 131 70 135 155 156 159 157 155 167 174 178 173 176 169 175 181 183 196 173 145 134 124 118 134 131 126 127 127 131 125 125 122 119
236 251 246 239 251 258 262 267 280 285 269 202 201 242 279 219 108 127 147 170 170 164 155 156 166 175 178 176 177 171 176 182 186 170 160 141 132 122 137 146 150 142 137 133 131 127 122 117 114
249 228 233 243 259 255 251 250 247 259 271 273 235 245 220 120 142 168 158 170 179 163 135 157 166 175 176 174 174 171 178 184 182 158 157 131 135 150 158 158 156 150 146 142 136 129 123 123 118
234 243 240 248 262 264 257 283 285 267 265 234 249 244 260 223 164 161 168 165 182 163 150 154 170 173 173 173 173 177 183 167 153 155 152 136 153 165 164 163 163 158 153 148 144 141 138 138 123
246 249 254 255 260 262 266 276 276 278 286 293 203 252 273 269 151 144 163 166 179 164 165 156 169 174 175 178 170 163 157 148 150 150 133 133 152 161 151 151 168 168 157 156 153 153 150 149 136
248 249 237 232 239 264 265 266 272 252 259 281 283 227 120 72 68 119 163 176 178 171 164 155 167 175 172 156 154 145 143 143 145 145 128 135 143 156 145 171 162 165 164 161 160 163 163 164 164
205 232 237 245 259 267 272 278 295 303 291 256 272 287 114 135 151 178 193 195 189 184 170 165 172 169 163 159 155 152 146 151 153 145 140 154 162 163 162 134 141 145 157 164 170 176 188 199 193
213 242 260 272 277 289 285 282 294 288 278 270 264 236 221 183 178 186 197 207 202 192 170 171 171 170 165 155 157 152 154 158 154 147 152 170 149 137 124 126 123 125 144 144 174 193 216 222 191
251 253 260 265 272 284 284 299 286 273 271 270 284 274 275 228 191 195 204 203 195 200 183 177 173 180 176 155 166 162 166 170 166 160 165 172 145 150 147 143 157 158 166 196 188 194 199 148 181
246 253 257 264 271 281 289 273 272 263 263 273 269 264 262 264 217 204 211 212 202 200 192 186 176 186 183 176 172 173 176 176 174 165 172 161 147 161 162 163 168 170 167 186 186 166 151 208 164
282 294 285 272 268 275 270 275 265 254 252 247 256 262 255 241 246 211 207 210 210 201 199 180 187 186 186 186 183 181 171 173 170 168 171 161 155 164 173 173 166 166 165 174 166 166 171 176 157
266 275 276 264 257 246 257 269 246 258 241 244 246 249 247 245 239 229 227 210 211 205 191 190 185 186 189 191 185 179 174 169 167 167 168 166 163 165 169 167 170 166 155 156 132 121 126 155 167
276 261 265 224 232 242 185 257 270 295 230 236 237 248 248 250 241 227 233 221 210 208 195 185 185 186 186 185 175 180 171 167 169 166 174 178 171 166 163 162 168 163 144 144 150 164 178 196 174
226 264 254 264 228 240 187 255 230 233 277 308 233 239 240 243 243 235 218 215 216 203 199 182 183 187 183 176 173 173 171 168 172 166 173 182 178 170 157 161 161 151 138 150 161 146 146 170 160
222 233 242 249 209 230 222 249 248 274 283 276 277 275 273 258 240 236 220 213 209 202 198 184 178 182 183 174 170 167 163 169 169 172 173 172 177 169 152 152 153 150 142 149 150 144 121 130 146
246 264 267 262 246 233 241 249 249 234 249 264 262 251 247 248 248 244 224 214 203 202 192 189 178 181 178 180 179 176 181 177 174 174 165 168 171 168 157 158 151 155 154 155 158 135 136 112 149
247 254 258 267 264 259 271 264 256 245 249 259 264 263 257 248 242 237 236 224 208 205 198 191 184 182 184 183 188 189 181 182 172 167 168 169 172 170 162 156 159 163 150 152 161 150 143 119 174
250 244 251 254 268 266 264 269 265 256 258 255 252 253 253 251 249 247 242 234 226 204 199 193 189 186 184 181 174 169 144 143 162 171 170 175 169 165 157 159 159 169 157 162 163 164 157 141 188
257 254 259 263 265 255 213 262 265 263 248 248 253 243 244 243 245 246 244 237 222 212 198 197 190 185 185 175 176 179 181 179 185 179 174 175 172 170 170 168 168 169 164 160 165 173 173 134 156
262 282 251 259 261 260 250 272 273 195 253 278 287 261 234 225 209 216 226 230 217 186 184 183 185 183 182 184 184 182 184 187 171 177 172 175 173 175 174 165 162 168 167 165 160 159 174 160 148
318 261 247 291 263 241 238 220 265 250 251 252 259 278 69 57 58 43 33 31 9 357 147 158 178 184 181 185 190 192 190 181 170 169 167 169 170 169 173 168 164 171 168 162 166 154 164 173 145
279 267 232 232 220 242 243 244 236 263 234 247 236 78 44 38 48 39 26 16 2 354 265 156 166 179 181 185 191 194 192 188 178 172 171 169 175 176 180 171 173 170 171 165 157 160 166 171 172
235 224 222 225 233 252 234 226 223 249 240 257 57 65 58 46 39 38 27 15 1 353 356 146 162 179 176 182 192 192 188 188 180 181 178 181 182 180 171 174 172 169 158 162 160 158 163 157 163
303 251 268 262 289 294 254 299 232 253 257 70 66 62 55 47 39 32 25 15 6 360 355 345 173 194 187 175 179 195 191 189 182 185 186 182 180 178 172 171 169 167 163 162 162 163 165 163 164
339 286 265 240 246 248 235 256 265 336 46 62 57 57 53 47 41 35 29 19 10 8 5 10 0 188 193 164 168 191 188 190 181 178 186 185 178 174 170 171 170 165 166 165 166 162 160 161 168
320 6 326 297 225 258 271 223 8 45 43 72 61 58 54 50 46 41 31 23 18 12 16 14 14 11 13 130 155 171 181 190 177 171 179 178 172 171 173 173 170 168 168 169 168 167 165 169 167
22 6 359 348 333 311 284 274 66 64 60 66 68 58 53 52 46 43 36 28 22 18 19 18 11 7 359 353 77 152 177 186 181 171 176 164 171 172 175 174 174 173 173 171 172 168 172 174 176